sat.trackr.live / text

‹ back to catalog

STARLINK-35553

NORAD 66120 · 2025-237G

PAYLOAD ACTIVE UNKNOWN

§ Identity

Operator
Country
US
Launch date
2025-10-22
Launch site
AFWTR
Launch vehicle
Mass (kg)
RCS (m²)

Purposes: comms

External: N2YO · Heavens-Above · Gunter

§ Orbital elements

Epoch: 2026-09-20T13:22:52.907520Z

Period
93.85 min
Inclination
53.1585°
Eccentricity
0.0001526
Mean motion
15.34399281 rev/d
Perigee alt
461.7 km
Apogee alt
463.7 km
Semi-major
6,840.8 km
B*
5.9859e-4
RAAN
211.0841°
Arg perigee
75.5911°
Mean anomaly
284.5261°
Rev number
5,249

§ Raw data

STARLINK-355531 66120U 25237G   26263.55755680  .00019901  00000+0  59859-3 0  99922 66120  53.1585 211.0841 0001526  75.5911 284.5261 15.34399281 52496

JSON: /api/v1/satellites/66120 · /tle

For live sub-satellite position, see the globe view (requires WebGL).

§ Visibility from observer

Set your observer location to see the next 7 days of passes ≥ 10°. The values pass through the URL so the page stays shareable.

No JS? Fill the form by hand. The geolocation button needs JavaScript.